Tracking 31027 objects as of 19-Jul-2025
HD Live streaming from Space Station
objects crossing your sky now

FENGYUN 1C DEB

Track FENGYUN 1C DEB now!
10-day predictions


NORAD ID: 36994
Int'l Code: 1999-025ECA
Perigee: 849.0 km
Apogee: 1,017.6 km
Inclination: 98.6 °
Period: 103.5 minutes
Semi major axis: 7304 km
RCS: 0.0026 m2 (small)
Launch date: May 10, 1999
Source: People's Republic of China (PRC)
Launch site: Taiyaun Space Center, China (TSC)

Note: This is SATELLITE DEBRIS
Your satellite tracking list
KHAYYAM
Track 1 satellite(s)




NASA's NSSDC Master Catalog

Two Line Element Set (TLE):
1 36994U 99025ECA 25197.38883402  .00000074  00000-0  86494-4 0  9992
2 36994  98.6176 170.1811 0115455 344.3907  15.3705 13.90707561788317
Source of the keplerian elements: AFSPC